TimeEDT,TemperatureF,Dew PointF,Humidity,Sea Level PressureIn,VisibilityMPH,Wind Direction,Wind SpeedMPH,Gust SpeedMPH,PrecipitationIn,Events,Conditions,WindDirDegrees,DateUTC
12:12 AM,67.3,60.8,80,29.87,10.0,South,5.8,-,N/A,,Clear,190,2013-06-16 04:12:00
12:33 AM,67.3,60.8,80,29.86,10.0,South,4.6,-,N/A,,Scattered Clouds,180,2013-06-16 04:33:00
12:52 AM,65.8,61.5,86,29.83,10.0,SSE,4.6,-,0.01,,Scattered Clouds,150,2013-06-16 04:52:00
1:12 AM,64.9,62.6,92,29.85,10.0,SSW,4.6,-,N/A,,Scattered Clouds,200,2013-06-16 05:12:00
1:32 AM,64.8,62.6,93,29.85,10.0,SSW,3.5,-,N/A,Rain,Light Rain,200,2013-06-16 05:32:00
1:52 AM,64.8,62.6,93,29.85,10.0,SW,3.5,-,N/A,Rain,Light Rain,220,2013-06-16 05:52:00
2:11 AM,64.8,63.0,94,29.84,5.0,WSW,3.5,-,0.02,Rain,Heavy Rain,240,2013-06-16 06:11:00
2:32 AM,64.4,63.0,95,29.82,5.0,Calm,Calm,-,0.05,Rain,Heavy Rain,0,2013-06-16 06:32:00
2:52 AM,64.2,63.0,96,29.79,7.0,Calm,Calm,-,0.07,Rain,Light Rain,0,2013-06-16 06:52:00
3:12 AM,64.0,63.3,97,29.79,4.0,South,4.6,-,0.01,Rain,Rain,190,2013-06-16 07:12:00
3:32 AM,63.9,63.1,97,29.78,4.0,South,3.5,-,0.03,Rain,Rain,180,2013-06-16 07:32:00
3:51 AM,64.0,63.5,98,29.76,5.0,SSE,6.9,-,0.04,Rain,Rain,150,2013-06-16 07:51:00
4:12 AM,64.4,63.5,97,29.77,2.5,Calm,Calm,-,0.01,Rain,Heavy Rain,0,2013-06-16 08:12:00
4:32 AM,64.0,63.5,98,29.76,2.5,Calm,Calm,-,0.03,Rain,Heavy Rain,0,2013-06-16 08:32:00
4:51 AM,64.2,63.7,98,29.75,5.0,South,5.8,-,0.04,Rain,Rain,190,2013-06-16 08:51:00
5:12 AM,64.4,63.9,98,29.75,4.0,Calm,Calm,-,0.01,,Drizzle,0,2013-06-16 09:12:00
5:32 AM,64.8,64.4,99,29.74,4.0,WSW,3.5,-,0.02,,Overcast,250,2013-06-16 09:32:00
5:51 AM,64.8,64.4,99,29.74,7.0,West,4.6,-,0.04,,Overcast,270,2013-06-16 09:51:00
6:12 AM,64.6,64.2,99,29.75,5.0,WNW,4.6,-,0.01,,Overcast,290,2013-06-16 10:12:00
6:32 AM,64.6,64.2,99,29.75,5.0,NW,3.5,-,0.03,,Overcast,310,2013-06-16 10:32:00
6:52 AM,64.8,64.4,99,29.77,10.0,WNW,6.9,-,0.04,,Overcast,300,2013-06-16 10:52:00
7:12 AM,64.9,64.0,97,29.77,10.0,WNW,5.8,-,0.01,,Overcast,300,2013-06-16 11:12:00
7:31 AM,65.3,64.4,97,29.78,7.0,West,5.8,-,0.02,,Overcast,280,2013-06-16 11:31:00
7:52 AM,65.3,64.4,97,29.79,5.0,WNW,5.8,-,0.03,,Overcast,300,2013-06-16 11:52:00
8:12 AM,65.3,64.4,97,29.79,10.0,WNW,4.6,-,0.01,,Overcast,300,2013-06-16 12:12:00
8:32 AM,66.0,64.9,96,29.79,10.0,WNW,4.6,-,0.02,,Overcast,290,2013-06-16 12:32:00
8:52 AM,67.1,65.3,94,29.80,10.0,West,5.8,-,0.03,,Overcast,270,2013-06-16 12:52:00
9:12 AM,68.4,65.5,90,29.80,10.0,West,9.2,-,N/A,,Overcast,260,2013-06-16 13:12:00
9:32 AM,69.3,65.5,88,29.80,10.0,WNW,8.1,-,0.01,,Overcast,290,2013-06-16 13:32:00
9:52 AM,70.3,65.7,85,29.81,10.0,West,8.1,-,0.02,,Overcast,270,2013-06-16 13:52:00
10:11 AM,71.2,65.1,81,29.81,10.0,West,11.5,-,0.01,,Overcast,270,2013-06-16 14:11:00
10:32 AM,72.3,64.8,77,29.81,10.0,NW,11.5,18.4,0.02,,Mostly Cloudy,320,2013-06-16 14:32:00
10:52 AM,74.1,65.1,73,29.81,10.0,WNW,9.2,16.1,0.03,,Scattered Clouds,300,2013-06-16 14:52:00
11:12 AM,73.6,64.2,72,29.81,10.0,WNW,10.4,16.1,0.01,,Mostly Cloudy,300,2013-06-16 15:12:00
11:32 AM,74.3,64.0,70,29.82,10.0,West,10.4,-,0.02,,Mostly Cloudy,280,2013-06-16 15:32:00
11:52 AM,75.0,64.2,69,29.81,10.0,NNW,8.1,-,0.04,,Scattered Clouds,340,2013-06-16 15:52:00
12:12 PM,75.9,64.0,67,29.81,10.0,West,8.1,-,0.01,,Scattered Clouds,280,2013-06-16 16:12:00
12:32 PM,77.2,64.0,64,29.82,10.0,WSW,5.8,-,0.02,,Scattered Clouds,240,2013-06-16 16:32:00
12:52 PM,78.3,64.0,61,29.82,10.0,West,9.2,-,0.03,,Scattered Clouds,270,2013-06-16 16:52:00
1:12 PM,79.7,63.7,58,29.82,10.0,WNW,9.2,16.1,N/A,,Scattered Clouds,290,2013-06-16 17:12:00
1:32 PM,80.2,63.9,57,29.82,10.0,WSW,11.5,17.3,0.02,,Mostly Cloudy,250,2013-06-16 17:32:00
1:52 PM,80.8,63.5,56,29.81,10.0,West,12.7,16.1,0.02,,Mostly Cloudy,260,2013-06-16 17:52:00
2:12 PM,81.9,63.7,54,29.81,10.0,SW,10.4,-,N/A,,Mostly Cloudy,230,2013-06-16 18:12:00
2:32 PM,82.2,60.6,48,29.80,10.0,WSW,13.8,17.3,0.01,,Mostly Cloudy,250,2013-06-16 18:32:00
2:52 PM,82.4,59.2,45,29.81,10.0,WNW,10.4,-,0.02,,Mostly Cloudy,290,2013-06-16 18:52:00
3:12 PM,81.9,58.1,44,29.81,10.0,WSW,10.4,20.7,0.01,,Scattered Clouds,250,2013-06-16 19:12:00
3:32 PM,82.4,55.8,40,29.81,10.0,West,13.8,20.7,0.01,,Scattered Clouds,280,2013-06-16 19:32:00
3:53 PM,82.9,55.8,39,29.81,10.0,West,10.4,-,0.02,,Scattered Clouds,260,2013-06-16 19:53:00
4:12 PM,83.3,55.4,38,29.81,10.0,West,9.2,16.1,N/A,,Scattered Clouds,270,2013-06-16 20:12:00
4:32 PM,83.7,56.5,39,29.81,10.0,WNW,10.4,25.3,0.01,,Scattered Clouds,290,2013-06-16 20:32:00
4:53 PM,82.9,55.0,38,29.81,10.0,WSW,16.1,24.2,0.01,,Scattered Clouds,250,2013-06-16 20:53:00
5:12 PM,83.1,56.3,40,29.81,10.0,West,11.5,19.6,N/A,,Clear,260,2013-06-16 21:12:00
5:32 PM,82.4,55.9,40,29.81,10.0,WSW,12.7,21.9,0.01,,Scattered Clouds,250,2013-06-16 21:32:00
5:53 PM,82.4,54.7,38,29.81,10.0,West,18.4,27.6,0.01,,Scattered Clouds,260,2013-06-16 21:53:00
6:12 PM,82.4,54.1,38,29.81,10.0,West,13.8,23.0,N/A,,Scattered Clouds,270,2013-06-16 22:12:00
6:32 PM,81.7,52.5,36,29.82,10.0,West,15.0,24.2,0.01,,Clear,280,2013-06-16 22:32:00
6:52 PM,81.5,50.7,34,29.82,10.0,West,11.5,23.0,0.01,,Clear,270,2013-06-16 22:52:00
7:12 PM,80.8,50.7,35,29.82,10.0,West,12.7,23.0,N/A,,Clear,270,2013-06-16 23:12:00
7:32 PM,80.6,50.2,35,29.82,10.0,West,12.7,21.9,N/A,,Clear,280,2013-06-16 23:32:00
7:52 PM,79.9,51.1,37,29.83,10.0,West,10.4,-,N/A,,Clear,270,2013-06-16 23:52:00
8:12 PM,78.8,52.2,39,29.83,10.0,West,8.1,-,N/A,,Clear,260,2013-06-17 00:12:00
8:32 PM,77.4,53.4,43,29.83,10.0,West,6.9,-,N/A,,Clear,260,2013-06-17 00:32:00
8:52 PM,75.6,54.3,48,29.83,10.0,West,4.6,-,N/A,,Clear,260,2013-06-17 00:52:00
9:12 PM,74.1,54.7,51,29.84,10.0,WSW,3.5,-,N/A,,Clear,240,2013-06-17 01:12:00
9:32 PM,71.2,55.6,58,29.84,10.0,SW,3.5,-,N/A,,Clear,230,2013-06-17 01:32:00
9:52 PM,70.0,55.9,61,29.85,10.0,SW,4.6,-,N/A,,Clear,230,2013-06-17 01:52:00
10:12 PM,70.5,56.7,61,29.85,10.0,WSW,8.1,-,N/A,,Clear,250,2013-06-17 02:12:00
10:32 PM,70.2,58.1,65,29.86,10.0,WSW,4.6,-,N/A,,Clear,240,2013-06-17 02:32:00
10:52 PM,69.8,58.6,68,29.86,10.0,SW,4.6,-,N/A,,Clear,230,2013-06-17 02:52:00
11:13 PM,69.1,59.0,70,29.87,10.0,West,5.8,-,N/A,,Clear,260,2013-06-17 03:13:00
11:32 PM,69.1,59.9,72,29.86,10.0,WSW,5.8,-,N/A,,Mostly Cloudy,240,2013-06-17 03:32:00
11:52 PM,68.9,59.7,72,29.86,10.0,WSW,8.1,-,N/A,,Scattered Clouds,250,2013-06-17 03:52:00